AFR96WQ LFPG-EHAM

Flight info

Callsign AFR96WQ
Flight time 0h 48m
Altitude 30000
Route NURMO DCT CMB DCT VEKIN DCT ADUTO N873 FERDI Y18 DENUT
Aircraft A319/M-SDE3FGHIRWY/LB1

Departure

Time 2026-05-08 12:25
Airport Charles de Gaulle International Airport (LFPG)

Arrival

Time 2026-05-08 13:14
Airport Amsterdam Airport Schiphol (EHAM)
Time Latitude Longitude Altitude Speed Heading
2026-05-08 11:54 49.00267 2.57951 354 ft 0 kts 232°
2026-05-08 12:13 49.00273 2.57963 354 ft 4 kts 234°
2026-05-08 12:13 49.00288 2.57998 359 ft 4 kts 240°
2026-05-08 12:13 49.00300 2.58034 361 ft 4 kts 246°
2026-05-08 12:14 49.00311 2.58072 359 ft 4 kts 251°
2026-05-08 12:14 49.00318 2.58111 357 ft 4 kts 257°
2026-05-08 12:14 49.00324 2.58151 360 ft 4 kts 262°
2026-05-08 12:14 49.00326 2.58193 354 ft 4 kts 268°
2026-05-08 12:15 49.00326 2.58233 354 ft 4 kts 271°
2026-05-08 12:15 49.00327 2.58274 354 ft 4 kts 250°
2026-05-08 12:15 49.00331 2.58290 357 ft 0 kts 176°
2026-05-08 12:18 49.00324 2.58290 356 ft 4 kts 176°
2026-05-08 12:18 49.00262 2.58297 354 ft 13 kts 176°
2026-05-08 12:18 49.00165 2.58309 354 ft 15 kts 175°
2026-05-08 12:19 49.00056 2.58322 354 ft 16 kts 176°
2026-05-08 12:19 49.00006 2.58191 356 ft 17 kts 264°
2026-05-08 12:19 48.99995 2.58010 354 ft 18 kts 264°
2026-05-08 12:19 48.99986 2.57817 354 ft 19 kts 266°
2026-05-08 12:20 48.99975 2.57615 358 ft 20 kts 264°
2026-05-08 12:20 48.99964 2.57402 354 ft 21 kts 265°
2026-05-08 12:20 48.99953 2.57180 354 ft 21 kts 265°
2026-05-08 12:20 48.99939 2.56948 354 ft 22 kts 264°
2026-05-08 12:21 48.99928 2.56711 354 ft 23 kts 265°
2026-05-08 12:21 48.99914 2.56461 354 ft 24 kts 265°
2026-05-08 12:21 48.99899 2.56199 354 ft 25 kts 265°
2026-05-08 12:21 48.99891 2.55940 354 ft 21 kts 277°
2026-05-08 12:22 48.99866 2.55794 357 ft 13 kts 196°
2026-05-08 12:22 48.99771 2.55806 354 ft 15 kts 176°
2026-05-08 12:22 48.99694 2.55814 354 ft 0 kts 174°
2026-05-08 12:23 48.99688 2.55815 354 ft 3 kts 174°
2026-05-08 12:23 48.99618 2.55833 354 ft 14 kts 152°
2026-05-08 12:23 48.99603 2.55896 354 ft 0 kts 86°
2026-05-08 12:23 48.99603 2.55897 354 ft 0 kts 86°
2026-05-08 12:24 48.99603 2.55898 354 ft 0 kts 86°
2026-05-08 12:25 48.99608 2.55985 354 ft 37 kts 85°
2026-05-08 12:25 48.99652 2.56823 355 ft 118 kts 85°
2026-05-08 12:25 48.99738 2.58358 593 ft 157 kts 85°
2026-05-08 12:25 48.99848 2.60083 1259 ft 168 kts 85°
2026-05-08 12:26 48.99949 2.61877 2091 ft 171 kts 85°
2026-05-08 12:26 49.00066 2.63708 2942 ft 177 kts 84°
2026-05-08 12:26 49.00241 2.65581 3724 ft 183 kts 83°
2026-05-08 12:26 49.00404 2.67575 4332 ft 199 kts 83°
2026-05-08 12:27 49.00532 2.69779 4861 ft 219 kts 85°
2026-05-08 12:27 49.00629 2.72221 5387 ft 244 kts 87°
2026-05-08 12:27 49.00714 2.74930 6102 ft 264 kts 87°
2026-05-08 12:27 49.00811 2.77743 7082 ft 272 kts 87°
2026-05-08 12:28 49.00927 2.80664 8092 ft 279 kts 87°
2026-05-08 12:28 49.01113 2.83643 9079 ft 287 kts 78°
2026-05-08 12:28 49.01989 2.86401 10061 ft 296 kts 50°
2026-05-08 12:28 49.03597 2.88349 10732 ft 312 kts 24°
2026-05-08 12:29 49.05732 2.89012 11294 ft 327 kts 356°
2026-05-08 12:29 49.08056 2.88631 12178 ft 333 kts 351°
2026-05-08 12:29 49.10381 2.88209 13116 ft 338 kts 352°
2026-05-08 12:29 49.12737 2.87794 14011 ft 343 kts 352°
2026-05-08 12:30 49.15126 2.87378 14817 ft 348 kts 352°
2026-05-08 12:30 49.17544 2.86960 15621 ft 352 kts 352°
2026-05-08 12:30 49.19993 2.86534 16423 ft 356 kts 352°
2026-05-08 12:30 49.22476 2.86100 17234 ft 361 kts 352°
2026-05-08 12:31 49.24988 2.85660 18041 ft 365 kts 352°
2026-05-08 12:31 49.27528 2.85219 18726 ft 370 kts 352°
2026-05-08 12:31 49.30054 2.84783 18981 ft 372 kts 352°
2026-05-08 12:31 49.32658 2.84333 19063 ft 371 kts 352°
2026-05-08 12:32 49.35189 2.83897 19071 ft 371 kts 352°
2026-05-08 12:32 49.37759 2.83449 19073 ft 371 kts 352°
2026-05-08 12:32 49.40328 2.83000 19073 ft 371 kts 352°
2026-05-08 12:32 49.42033 2.82702 19074 ft 371 kts 352°
2026-05-08 12:33 49.44595 2.82251 19073 ft 371 kts 352°
2026-05-08 12:33 49.47162 2.81796 19120 ft 373 kts 352°
2026-05-08 12:33 49.49752 2.81336 19837 ft 375 kts 352°
2026-05-08 12:33 49.52099 2.80923 20505 ft 379 kts 352°
2026-05-08 12:34 49.53879 2.80615 20995 ft 381 kts 352°
2026-05-08 12:34 49.56523 2.80152 21714 ft 385 kts 352°
2026-05-08 12:34 49.59166 2.79687 22408 ft 388 kts 352°
2026-05-08 12:34 49.61868 2.79208 23102 ft 392 kts 352°
2026-05-08 12:35 49.64594 2.78721 23754 ft 396 kts 352°
2026-05-08 12:35 49.67343 2.78231 24351 ft 400 kts 352°
2026-05-08 12:35 49.70125 2.77740 24941 ft 402 kts 352°
2026-05-08 12:35 49.72915 2.77252 25517 ft 405 kts 352°
2026-05-08 12:36 49.75735 2.76756 26076 ft 408 kts 352°
2026-05-08 12:36 49.78580 2.76378 26634 ft 412 kts 358°
2026-05-08 12:36 49.81452 2.76713 27173 ft 417 kts
2026-05-08 12:36 49.84275 2.77852 27706 ft 422 kts 19°
2026-05-08 12:37 49.86918 2.79744 28225 ft 426 kts 29°
2026-05-08 12:37 49.89455 2.82203 28749 ft 430 kts 31°
2026-05-08 12:37 49.91991 2.84693 29264 ft 433 kts 31°
2026-05-08 12:37 49.94547 2.87203 29772 ft 436 kts 31°
2026-05-08 12:38 49.97120 2.89727 30049 ft 438 kts 31°
2026-05-08 12:38 49.99654 2.92219 30083 ft 422 kts 31°
2026-05-08 12:38 50.02052 2.94582 30079 ft 405 kts 31°
2026-05-08 12:38 50.04406 2.96901 30081 ft 397 kts 31°
2026-05-08 12:39 50.09052 3.01486 30081 ft 394 kts 32°
2026-05-08 12:39 50.13679 3.06064 30084 ft 394 kts 32°
2026-05-08 12:40 50.18296 3.10641 30080 ft 393 kts 32°
2026-05-08 12:40 50.22937 3.15168 30081 ft 392 kts 27°
2026-05-08 12:41 50.27860 3.18681 30076 ft 392 kts 23°
2026-05-08 12:41 50.32837 3.22162 30077 ft 391 kts 23°
2026-05-08 12:42 50.37814 3.25671 30080 ft 391 kts 23°
2026-05-08 12:42 50.42760 3.29219 30078 ft 391 kts 25°
2026-05-08 12:43 50.47637 3.33032 30081 ft 391 kts 26°
2026-05-08 12:43 50.52474 3.36882 30087 ft 399 kts 25°
2026-05-08 12:44 50.55046 3.38768 30087 ft 414 kts 23°
2026-05-08 12:44 50.57702 3.40599 30084 ft 419 kts 22°
2026-05-08 12:44 50.63102 3.44200 30089 ft 422 kts 22°
2026-05-08 12:45 50.68498 3.47845 30088 ft 422 kts 22°
2026-05-08 12:45 50.73864 3.51550 30092 ft 421 kts 23°
2026-05-08 12:46 50.79232 3.55292 30093 ft 421 kts 23°
2026-05-08 12:46 50.84603 3.59053 30094 ft 421 kts 23°
2026-05-08 12:47 50.89966 3.62618 30094 ft 420 kts 16°
2026-05-08 12:47 50.95739 3.63983 30097 ft 426 kts
2026-05-08 12:48 50.98746 3.64150 30094 ft 438 kts
2026-05-08 12:48 51.01816 3.64338 30096 ft 442 kts
2026-05-08 12:48 51.07986 3.64746 30092 ft 444 kts
2026-05-08 12:49 51.14042 3.65148 29821 ft 423 kts
2026-05-08 12:49 51.16927 3.65339 29178 ft 420 kts
2026-05-08 12:49 51.19849 3.65527 28374 ft 420 kts
2026-05-08 12:50 51.22778 3.65714 27643 ft 418 kts
2026-05-08 12:50 51.25669 3.65835 27037 ft 414 kts 359°
2026-05-08 12:50 51.28532 3.65811 26440 ft 410 kts 358°
2026-05-08 12:50 51.31385 3.65695 25865 ft 407 kts 357°
2026-05-08 12:51 51.34197 3.65545 25318 ft 403 kts 357°
2026-05-08 12:51 51.39547 3.65282 24317 ft 398 kts 357°
2026-05-08 12:51 51.42309 3.65177 23826 ft 395 kts 358°
2026-05-08 12:52 51.45020 3.65092 23296 ft 393 kts 358°
2026-05-08 12:52 51.50443 3.64941 22224 ft 387 kts 358°
2026-05-08 12:52 51.53125 3.64863 21711 ft 384 kts 358°
2026-05-08 12:53 51.55794 3.64783 21193 ft 382 kts 358°
2026-05-08 12:53 51.58436 3.64702 20685 ft 379 kts 358°
2026-05-08 12:53 51.61071 3.64619 20170 ft 377 kts 358°
2026-05-08 12:53 51.63683 3.64539 19656 ft 374 kts 358°
2026-05-08 12:54 51.66279 3.64460 19155 ft 372 kts 358°
2026-05-08 12:54 51.68853 3.64786 18665 ft 370 kts 12°
2026-05-08 12:54 51.71265 3.66180 18155 ft 368 kts 27°
2026-05-08 12:54 51.73352 3.68529 17622 ft 365 kts 43°
2026-05-08 12:55 51.74973 3.71642 17111 ft 361 kts 57°
2026-05-08 12:55 51.76300 3.75007 16603 ft 359 kts 58°
2026-05-08 12:55 51.77642 3.78408 16103 ft 357 kts 58°
2026-05-08 12:55 51.78973 3.81779 15630 ft 354 kts 58°
2026-05-08 12:56 51.80297 3.85137 15152 ft 352 kts 58°
2026-05-08 12:56 51.81604 3.88461 14729 ft 349 kts 58°
2026-05-08 12:56 51.82904 3.91774 14287 ft 347 kts 58°
2026-05-08 12:56 51.84178 3.95024 13855 ft 344 kts 58°
2026-05-08 12:57 51.85455 3.98291 13357 ft 342 kts 58°
2026-05-08 12:57 51.86719 4.01531 12863 ft 339 kts 58°
2026-05-08 12:57 51.87970 4.04745 12492 ft 333 kts 58°
2026-05-08 12:57 51.89186 4.07876 12367 ft 321 kts 58°
2026-05-08 12:58 51.90341 4.10845 12225 ft 310 kts 58°
2026-05-08 12:58 51.91618 4.13590 11972 ft 304 kts 46°
2026-05-08 12:58 51.93206 4.15834 11631 ft 301 kts 39°
2026-05-08 12:58 51.94832 4.17978 11277 ft 300 kts 39°
2026-05-08 12:59 51.96443 4.20107 10917 ft 298 kts 39°
2026-05-08 12:59 51.98042 4.22227 10562 ft 296 kts 39°
2026-05-08 12:59 51.99640 4.24349 10202 ft 295 kts 39°
2026-05-08 12:59 52.01234 4.26469 9455 ft 303 kts 39°
2026-05-08 13:00 52.02902 4.28693 8313 ft 315 kts 39°
2026-05-08 13:00 52.04578 4.30931 7533 ft 311 kts 39°
2026-05-08 13:00 52.06092 4.32948 7285 ft 292 kts 39°
2026-05-08 13:00 52.07620 4.34986 7156 ft 278 kts 39°
2026-05-08 13:01 52.09047 4.36892 7107 ft 252 kts 39°
2026-05-08 13:01 52.10364 4.38561 7099 ft 227 kts 30°
2026-05-08 13:01 52.11810 4.39265 6879 ft 214 kts
2026-05-08 13:01 52.13290 4.39466 6605 ft 212 kts
2026-05-08 13:02 52.14762 4.39600 6345 ft 211 kts
2026-05-08 13:02 52.16221 4.39721 6072 ft 209 kts
2026-05-08 13:02 52.17653 4.39834 5789 ft 208 kts
2026-05-08 13:02 52.19120 4.39947 5511 ft 207 kts
2026-05-08 13:03 52.20542 4.40052 5257 ft 206 kts
2026-05-08 13:03 52.21974 4.40154 4995 ft 205 kts
2026-05-08 13:03 52.23395 4.40255 4712 ft 204 kts
2026-05-08 13:03 52.24829 4.40353 4432 ft 203 kts
2026-05-08 13:04 52.26221 4.40446 4194 ft 201 kts
2026-05-08 13:04 52.27620 4.40534 4133 ft 201 kts
2026-05-08 13:04 52.29024 4.40620 4137 ft 202 kts
2026-05-08 13:04 52.30430 4.40705 4136 ft 202 kts
2026-05-08 13:05 52.31839 4.40789 4140 ft 202 kts
2026-05-08 13:05 52.33246 4.40874 4137 ft 202 kts
2026-05-08 13:05 52.34639 4.40630 4135 ft 203 kts 337°
2026-05-08 13:05 52.35701 4.39148 4140 ft 204 kts 299°
2026-05-08 13:06 52.35993 4.36911 4138 ft 205 kts 261°
2026-05-08 13:06 52.35396 4.34851 4136 ft 204 kts 223°
2026-05-08 13:06 52.34160 4.33812 4103 ft 201 kts 186°
2026-05-08 13:06 52.32831 4.34164 3812 ft 198 kts 152°
2026-05-08 13:07 52.31655 4.35349 3489 ft 200 kts 143°
2026-05-08 13:07 52.30518 4.36651 3195 ft 199 kts 143°
2026-05-08 13:07 52.29393 4.37962 2925 ft 198 kts 142°
2026-05-08 13:07 52.28276 4.39271 2654 ft 197 kts 142°
2026-05-08 13:08 52.27183 4.40549 2450 ft 188 kts 142°
2026-05-08 13:08 52.26129 4.41784 2265 ft 185 kts 142°
2026-05-08 13:08 52.25090 4.43006 2090 ft 184 kts 142°
2026-05-08 13:08 52.24047 4.44236 2006 ft 184 kts 143°
2026-05-08 13:09 52.23013 4.45453 1999 ft 183 kts 143°
2026-05-08 13:09 52.21985 4.46695 2008 ft 184 kts 137°
2026-05-08 13:09 52.21198 4.48317 2012 ft 184 kts 117°
2026-05-08 13:09 52.20814 4.50282 2045 ft 181 kts 97°
2026-05-08 13:10 52.20870 4.52328 1998 ft 180 kts 77°
2026-05-08 13:10 52.21358 4.54183 2003 ft 181 kts 58°
2026-05-08 13:10 52.22030 4.55910 2009 ft 181 kts 58°
2026-05-08 13:10 52.22697 4.57626 2007 ft 171 kts 58°
2026-05-08 13:11 52.23314 4.59219 2000 ft 163 kts 58°
2026-05-08 13:11 52.23916 4.60777 1851 ft 161 kts 58°
2026-05-08 13:11 52.24511 4.62315 1653 ft 160 kts 58°
2026-05-08 13:11 52.25102 4.63845 1447 ft 159 kts 57°
2026-05-08 13:12 52.25694 4.65377 1240 ft 159 kts 57°
2026-05-08 13:12 52.26281 4.66898 1022 ft 159 kts 58°
2026-05-08 13:12 52.26879 4.68409 799 ft 158 kts 56°
2026-05-08 13:12 52.27440 4.69857 619 ft 145 kts 57°
2026-05-08 13:13 52.27913 4.71144 392 ft 132 kts 58°
2026-05-08 13:13 52.28407 4.72413 199 ft 126 kts 57°
2026-05-08 13:13 52.28873 4.73617 69 ft 124 kts 57°
2026-05-08 13:13 52.29316 4.74758 2 ft 108 kts 57°
2026-05-08 13:14 52.29621 4.75572 -1 ft 65 kts 57°
2026-05-08 13:14 52.29807 4.76056 -4 ft 47 kts 58°
2026-05-08 13:14 52.29962 4.76451 -3 ft 30 kts 51°
2026-05-08 13:14 52.30104 4.76604 -1 ft 15 kts 27°
2026-05-08 13:15 52.30192 4.76680 -1 ft 13 kts 28°
2026-05-08 13:15 52.30273 4.76740 -1 ft 14 kts 10°
2026-05-08 13:15 52.30369 4.76730 -1 ft 14 kts 24°
2026-05-08 13:15 52.30425 4.76860 -1 ft 15 kts 58°
2026-05-08 13:16 52.30497 4.76967 -1 ft 14 kts 353°
2026-05-08 13:16 52.30586 4.76884 -1 ft 15 kts 316°
2026-05-08 13:16 52.30653 4.76755 -1 ft 11 kts 327°
2026-05-08 13:16 52.30687 4.76669 -1 ft 10 kts 253°
2026-05-08 13:17 52.30669 4.76602 -1 ft 3 kts 248°
2026-05-08 13:17 52.30667 4.76593 -1 ft 0 kts 248°